Regional Weather Roundup
Issued by NWS

Home | Current Version | Previous Version | Text Only | Print | Product List | Glossary On
Versions: 1 2 3 4 5 6 7 8 9 10 11 12 13 14 15 16 17 18 19 20 21 22 23 24 25 26 27 28 29 30 31 32 33 34 35 36 37 38 39 40 41 42 43 44 45 46 47 48 49 50
763
ASUS44 KLIX 221712
RWRLA
LOUISIANA WEATHER ROUNDUP
NATIONAL WEATHER SERVICE NEW ORLEANS LA
1200 PM CDT FRI MAY 22 2015

NOTE: "FAIR" INDICATES FEW OR NO CLOUDS BELOW 12,000 FEET WITH NO
      SIGNIFICANT WEATHER AND/OR OBSTRUCTIONS TO VISIBILITY.
      SKY/WX - SKY CONDITION AND SIGNIFICANT WEATHER.
      TMP - AIR TEMPERATURE.    DP   - DEWPOINT TEMPERATURE.
      RH  - RELATIVE HUMIDITY.  PRES - PRESSURE.
      HX  - HEAT INDEX.         WCI  - WIND CHILL INDEX.

*  THESE STATIONS ARE NOT NWS OR FAA STATIONS AND ARE NOT UNDER
   NWS QUALITY CONTROL.

LAZ040-048-061>063-065-066-069-221800-
SOUTHEAST LOUISIANA

CITY           SKY/WX    TMP DP  RH WIND       PRES   REMARKS
N.O. AUDUBON   NOT AVBL
N.O. INTL ARPT PTSUNNY   74  62  66 NE7       30.17F
N.O. LAKEFRONT MOSUNNY   74  61  63 NE7       30.18F
SLIDELL        MOSUNNY   74  62  66 MISG      30.16F
BATON ROUGE    SUNNY     76  63  64 VRB3      30.17S
BOOTHVILLE     CLOUDY    76  69  79 NE9       30.17S
BELLE CHASSE   PTSUNNY   74  62  66 NE8       30.17S
BOGALUSA*        N/A     72  57  59 CALM      30.21S
GALLIANO*      PTSUNNY   77  67  71 CALM      30.17S
NEW ROADS*     CLOUDY    72  63  73 N3        30.18F
GONZALES*      FAIR      76  65  70 NE6       30.15F
HAMMOND*       MOSUNNY   75  59  57 NE5       30.18F
HOUMA*         CLOUDY    75  68  78 E9        30.16F
PORT FOURCHON* CLOUDY    75  70  83 NE12G18   30.16F

$$

LAZ041-044-053-054-221800-
SOUTHWEST LOUISIANA

CITY           SKY/WX    TMP DP  RH WIND       PRES   REMARKS
LAKE CHARLES   MOSUNNY   72  63  73 E14       30.16F
LAFAYETTE      CLOUDY    72  64  76 NE6       30.17R
PATTERSON      NOT AVBL
SALT POINT       N/A     75  68  78 SE7       30.13F
NEW IBERIA     CLOUDY    75  67  76 NE8       30.17S
CHENAULT AIRPK PTSUNNY   72  63  73 E8        30.17S

$$

LAZ027-028-221800-
CENTRAL LOUISIANA

CITY           SKY/WX    TMP DP  RH WIND       PRES   REMARKS
FORT POLK      CLOUDY    64  59  83 NE7       30.18F
ALEXANDRIA INT CLOUDY    65  58  78 NE8       30.20S
ALEXANDRIA     CLOUDY    69  58  67 VRB6      30.21F

$$

LAZ001-002-221800-
NORTHWEST LOUISIANA

CITY           SKY/WX    TMP DP  RH WIND       PRES   REMARKS
SHREVEPORT     PTSUNNY   65  53  65 SE7       30.21F
BARKSDALE AFB  SUNNY     64  54  68 E7        30.21F
DTN SHREVEPORT SUNNY     63  52  67 E9        30.22F

$$

LAZ014-016-221800-
NORTHEAST LOUISIANA

CITY           SKY/WX    TMP DP  RH WIND       PRES   REMARKS
MONROE         SUNNY     67  54  63 E8        30.25F
TALLULAH       MOSUNNY   70  51  51 VRB6      30.23F

$$




USA.gov is the U.S. government's official web portal to all federal, state and local government web resources and services.